2023-025D (55693 NORAD) Tracking and Keplerian Element Data

This shows tracking and keplerian element data for the satellite.

Feedback or suggestion? Click here.




ElementValue
Catalog55693
Name2023-025D
Epoch Orbit114
Epoch Day62.81173844
Epoch Year2023
RAAN136.4282
Inclination97.2435
Eccentricity0.0093531
Argument of Perigee201.3424
Mean Anonmoly158.3888
Mean Motion15.14805184
Decay Rate0.00101337
L11 55693U 23025D 23062.81173844 .00101337 00000+0 48356-2 0 9991
L22 55693 97.2435 136.4282 0093531 201.3424 158.3888 15.14805184 1147



Live tracking and technical data element details for 2023-025D (NORAD 55693). 2023-025D can be tracked NOW for your location showing map with azimuth and elevation plus other details from your city location.







IsCatalogInMostPopularTable: catalog: 55693, numindb: 1
Update: records affected: 1



GetName: 55693 2023-025D

Hit Count: updated at: Wed, 22 Mar 2023 15:34:06 GMT